Liberia, Costa Rica

2:44 AM CST on December 17, 2017 (GMT -0600)
Daniel Oduber Quiros International

Weather History for MRLB - November, 2013

Change the Weather History Date:

Monday, November 18, 2013

  Actual Average Record
Temperature  
Mean Temperature 82 °F -  
Max Temperature 91 °F 86 °F 91 °F (1997)
Min Temperature 72 °F 72 °F 63 °F (2017)
Cooling Degree Days 16    
Growing Degree Days 32 (Base 50)    
Moisture  
Dew Point 72 °F    
Average Humidity 66    
Maximum Humidity 94    
Minimum Humidity 43    
Precipitation  
Precipitation 0.00 in - - ()
Sea Level Pressure  
Sea Level Pressure 29.81 in    
Wind  
Wind Speed 4 mph ()    
Max Wind Speed 14 mph    
Max Gust Speed -    
Visibility 6.2 miles    
Events Fog    
Averages and records for this station are not official NWS values.
T = Trace of Precipitation, MM = Missing Value Source: Averaged Metar Reports

Daily Weather History Graph

Daily Weather History Graph

Search for Another Location

Airport or City:

Trip Planner

Search our weather history database for the weather conditions in past years. The results will help you decide how hot, cold, wet, or windy it might be!

Date:

Astronomy

Nov. 18, 2013 Rise Set
Actual Time 5:38 AM CST 5:15 PM CST
Civil Twilight 5:16 AM CST 5:38 PM CST
Nautical Twilight 4:50 AM CST 6:03 PM CST
Astronomical Twilight 4:25 AM CST 6:29 PM CST
Moon 6:20 PM CST (11/18) 6:25 AM CST (11/18)
Length of Visible Light 12h 21m
Length of Day
11h 37m
Full, 99% of the Moon is Illuminated
Nov 18
Full
Nov 25
Last Quarter
Dec 2
New
Dec 9
First Quarter
Dec 17
Full

Hourly Weather History & Observations

Time (CST) Temp. Heat Index Dew Point Humidity Pressure Visibility Wind Dir Wind Speed Gust Speed Precip Events Conditions
6:00 AM - - - % 29.84 in 0 mi SSW 3.5 mph - - Fog Partial Fog
6:00 AM 73.4 °F - 71.6 °F 94% 29.81 in 0.2 mi SSW 3.5 mph - N/A Fog Fog
6:40 AM 75.2 °F - 73.4 °F 94% 29.82 in 1.6 mi WSW 1.2 mph - N/A   Mostly Cloudy
7:00 AM 75.2 °F - 73.4 °F 94% 29.83 in 1.2 mi Calm Calm - N/A   Mostly Cloudy
7:22 AM 77.0 °F - 73.4 °F 89% 29.83 in 5.0 mi NNW 1.2 mph - N/A   Scattered Clouds
8:00 AM 78.8 °F - 73.4 °F 83% 29.85 in 6.2 mi Calm Calm - N/A   Mostly Cloudy
9:00 AM 86 °F - 73 °F 57% 29.89 in 12 mi Calm Calm - -   Scattered Clouds
9:00 AM 86.0 °F 93.4 °F 73.4 °F 66% 29.86 in 6.2 mi Calm Calm - N/A   Scattered Clouds
10:00 AM 87.8 °F 95.6 °F 73.4 °F 62% 29.85 in 6.2 mi North 3.5 mph - N/A   Scattered Clouds
11:00 AM 87.8 °F 93.8 °F 71.6 °F 58% 29.84 in 6.2 mi East 10.4 mph - N/A   Scattered Clouds
12:00 PM 90 °F - 71 °F 43% 29.82 in 12 mi ESE 11.5 mph - -   Scattered Clouds
12:00 PM 89.6 °F 94.7 °F 69.8 °F 52% 29.79 in 6.2 mi ESE 11.5 mph - N/A   Scattered Clouds
1:00 PM 89.6 °F 98.2 °F 73.4 °F 59% 2.97 in 6.2 mi NW 6.9 mph - N/A   Mostly Cloudy
2:00 PM 87.8 °F 93.8 °F 71.6 °F 58% 29.74 in 6.2 mi East 13.8 mph - N/A   Mostly Cloudy
3:00 PM 88 °F - 72 °F 50% 29.77 in 12 mi East 9.2 mph - -   Scattered Clouds
3:00 PM 87.8 °F 93.8 °F 71.6 °F 58% 29.74 in 6.2 mi East 9.2 mph - N/A   Mostly Cloudy
4:00 PM 87.8 °F 93.8 °F 71.6 °F 58% 29.74 in 6.2 mi East 6.9 mph - N/A   Mostly Cloudy
5:00 PM 84.2 °F 89.6 °F 71.6 °F 66% 29.75 in 6.2 mi East 4.6 mph - N/A   Mostly Cloudy
6:00 PM 82 °F - 69 °F 57% 29.81 in 12 mi NE 8.1 mph - -   Overcast
6:00 PM 82.4 °F 86.3 °F 69.8 °F 66% 29.78 in 6.2 mi NE 8.1 mph - N/A   Mostly Cloudy
7:00 PM 82.4 °F 86.3 °F 69.8 °F 66% 29.79 in - East 1.2 mph - N/A   Clear
8:00 PM 80.6 °F 83.2 °F 68.0 °F 65% 29.82 in - ENE 8.1 mph - N/A   Clear